DateTimeUTC,F1_A11,F1_S11,BsB_S11,BsG_S11,BsR_S11,BbsB_S11,BbsG_S11,BbsR_S11,BaB_A11,BaG_A11,BaR_A11,Tu_S11,T_S11,Uu_S11,U_S11,P_S11,T1_A11
2021-06-23T05:00:00Z,00040200,20000000,,,,,,,0000.18,0000.23,0000.59,17.9,24.7,04.6,03.0,0676.1,31.0
2021-06-23T05:01:00Z,00040200,20000000,,,,,,,0000.41,0000.22,-000.44,17.9,24.8,04.6,03.0,0676.1,31.0
2021-06-23T05:02:00Z,00040200,20000000,,,,,,,-000.35,0000.51,0000.08,17.9,24.8,04.6,03.0,0676.1,31.1
2021-06-23T05:03:00Z,00040200,60000000,,,,,,,0000.54,-000.10,0000.24,18.0,24.8,04.6,03.0,0676.1,31.1
2021-06-23T05:04:00Z,00040200,40000000,0000.70,0000.53,0000.67,-000.16,-000.01,0000.51,0000.75,0000.66,0000.27,18.3,24.8,04.8,03.2,0677.1,31.1
2021-06-23T05:05:00Z,00040200,00000000,0001.29,0001.15,0000.53,0000.19,0000.35,0000.04,0000.64,0000.46,0000.79,18.3,24.7,04.9,03.3,0677.2,31.1
2021-06-23T05:06:00Z,00040200,00000000,0001.04,0000.68,0000.71,0000.27,0000.17,0000.31,0000.55,0000.71,0000.39,18.3,24.7,04.8,03.3,0677.2,31.1
2021-06-23T05:07:00Z,00040200,00000000,0001.53,0000.86,0000.35,0000.00,0000.27,0000.25,0000.59,0000.85,0000.81,18.2,24.6,05.0,03.3,0677.2,31.0
2021-06-23T05:08:00Z,00040200,00000000,0000.22,0001.14,0000.55,0000.10,0000.39,0000.25,0000.87,0000.37,0000.30,18.2,24.6,05.0,03.3,0677.2,31.0
2021-06-23T05:09:00Z,00040200,00000000,0000.98,0000.90,0000.54,0000.59,0000.34,0000.16,0000.73,0000.66,0000.47,18.2,24.6,05.0,03.4,0677.2,31.0
2021-06-23T05:10:00Z,00040200,00000000,0001.03,0000.86,0000.55,0000.15,0000.20,0000.33,-000.04,0000.27,0000.17,18.1,24.6,05.1,03.4,0677.2,31.0
2021-06-23T05:11:00Z,00040200,00000000,0001.38,0000.94,0000.31,-000.08,0000.16,-000.34,0000.91,0000.79,0000.20,18.1,24.5,05.1,03.4,0677.2,31.0
2021-06-23T05:12:00Z,00040200,00000000,0000.58,0001.01,0000.49,0000.26,0000.35,0000.30,0000.43,0000.23,0000.25,18.1,24.5,05.2,03.5,0677.2,31.0
2021-06-23T05:13:00Z,00040200,00000000,0001.26,0000.66,0000.25,0000.93,0000.20,0000.28,0001.09,0000.78,0000.96,18.1,24.5,05.2,03.5,0677.2,31.0
2021-06-23T05:14:00Z,00040200,00000000,0000.79,0000.89,0000.50,0000.10,0000.18,0000.12,0000.25,0000.86,0000.90,18.1,24.5,05.2,03.5,0677.3,31.0
2021-06-23T05:15:00Z,00040200,00000000,0002.02,0000.87,0000.62,0000.19,0000.27,0000.13,0000.91,0000.81,0000.40,18.2,24.5,05.3,03.6,0677.3,31.1
2021-06-23T05:16:00Z,00040200,00000000,0001.15,0000.87,0001.10,0000.51,0000.37,0000.20,0000.75,0000.27,0000.07,18.3,24.6,05.3,03.6,0677.3,31.1
2021-06-23T05:17:00Z,00040200,00000000,0001.10,0000.76,0000.70,0000.31,0000.35,0000.13,0000.22,0000.41,0000.50,18.3,24.6,05.3,03.6,0677.3,31.1
2021-06-23T05:18:00Z,00040200,00000000,0000.37,0001.02,0000.68,-000.10,0000.32,-000.16,0000.55,0000.56,0000.43,18.4,24.6,05.3,03.6,0677.3,31.1
2021-06-23T05:19:00Z,00040200,00000000,0000.67,0000.85,0000.63,-000.43,-000.06,0000.25,0000.24,0000.29,0000.18,18.4,24.6,05.2,03.5,0677.3,31.1
2021-06-23T05:20:00Z,00040200,00000000,0000.91,0000.88,0000.51,0000.18,0000.64,0000.14,0000.25,0000.26,0000.42,18.3,24.6,05.1,03.5,0677.3,31.1
2021-06-23T05:21:00Z,00040200,00000000,0000.99,0000.94,0000.63,0000.09,0000.08,0000.35,0000.64,0000.31,0000.28,18.3,24.6,05.1,03.4,0677.3,31.1
2021-06-23T05:22:00Z,00040200,00000000,0001.08,0000.84,0000.53,-000.30,0000.29,-000.06,0000.44,0000.71,0000.62,18.3,24.6,05.1,03.5,0677.3,31.0
2021-06-23T05:23:00Z,00040200,00000000,0001.28,0001.02,0000.35,-000.23,0000.19,0000.09,0000.79,0000.40,0000.07,18.2,24.6,05.1,03.5,0677.3,31.0
2021-06-23T05:24:00Z,00040200,00000000,0001.37,0000.93,0000.42,0000.58,-000.06,0000.30,0000.50,0000.69,0000.71,18.2,24.5,05.2,03.5,0677.3,31.0
2021-06-23T05:25:00Z,00040200,00000000,0001.13,0000.78,0000.25,-000.03,0000.31,0000.19,0000.48,0000.11,0000.46,18.1,24.5,05.3,03.6,0677.2,31.0
2021-06-23T05:26:00Z,00040200,00000000,0000.70,0000.94,0000.64,-000.12,0000.49,0000.03,0000.74,0000.85,0000.33,18.1,24.5,05.3,03.6,0677.2,31.0
2021-06-23T05:27:00Z,00040200,00000000,0000.75,0000.74,0000.57,-000.20,0000.33,0000.41,0000.52,0000.48,-000.02,18.1,24.4,05.3,03.6,0677.2,31.0
2021-06-23T05:28:00Z,00040200,00000000,0001.22,0000.83,0000.83,0000.02,0000.18,0000.32,0000.22,0000.57,0000.47,18.1,24.4,05.4,03.6,0677.2,31.0
2021-06-23T05:29:00Z,00040200,00000000,0000.95,0000.74,0000.51,-000.06,0000.17,0000.16,0001.15,0000.57,0000.72,18.1,24.4,05.3,03.6,0677.2,31.0
2021-06-23T05:30:00Z,00040200,00000000,0001.17,0000.66,0000.49,0000.06,0000.05,0000.24,0000.20,0000.40,0000.01,18.2,24.5,05.2,03.5,0677.3,31.0
2021-06-23T05:31:00Z,00040200,00000000,0001.64,0001.10,0000.28,-000.16,0000.41,0000.16,0000.29,0000.33,0000.53,18.3,24.5,05.2,03.5,0677.3,31.0
2021-06-23T05:32:00Z,00040200,00000000,0001.38,0000.99,0000.60,0000.22,0000.23,0000.45,0000.24,0000.33,0000.30,18.4,24.6,05.1,03.5,0677.3,31.1
2021-06-23T05:33:00Z,00040200,00000000,0001.58,0000.89,0000.36,-000.49,0000.11,0000.31,0000.60,0000.56,-000.02,18.5,24.6,05.0,03.4,0677.3,31.1
2021-06-23T05:34:00Z,00040200,00000000,0001.04,0001.08,0000.78,-000.52,0000.14,0000.31,0000.34,0000.47,0000.68,18.4,24.6,05.1,03.5,0677.3,31.1
2021-06-23T05:35:00Z,00040200,00000000,0001.10,0000.65,0000.55,-000.06,0000.13,0000.36,0000.58,0000.49,0000.28,18.4,24.6,05.1,03.5,0677.3,31.1
2021-06-23T05:36:00Z,00040200,00000000,0001.84,0000.78,0000.79,0000.08,0000.25,0000.25,0000.57,0000.34,0000.64,18.4,24.6,05.0,03.4,0677.3,31.1
2021-06-23T05:37:00Z,00040200,00000000,0000.43,0000.78,0000.51,0000.11,0000.47,0000.34,0000.58,0000.43,0000.15,18.4,24.6,05.1,03.5,0677.2,31.0
2021-06-23T05:38:00Z,00040200,00000000,0000.96,0001.21,0000.62,0000.41,0000.36,0000.43,0000.32,0000.17,-000.05,18.3,24.6,05.0,03.4,0677.2,31.1
2021-06-23T05:39:00Z,00040200,00000000,0001.20,0001.15,0000.63,-000.20,0000.24,0000.15,0000.67,0000.63,0000.96,18.3,24.6,05.1,03.5,0677.3,31.0
2021-06-23T05:40:00Z,00040200,00000000,0001.60,0000.64,0000.75,0000.10,0000.37,0000.14,0001.03,0001.02,0000.45,18.2,24.5,05.1,03.4,0677.2,31.0
2021-06-23T05:41:00Z,00040200,00000000,0000.51,0000.92,0000.66,0000.53,0000.21,0000.18,0000.39,0000.37,0000.29,18.2,24.5,05.4,03.6,0677.2,31.0
2021-06-23T05:42:00Z,00040200,00000000,0000.81,0000.94,0000.73,0000.47,0000.20,0000.52,0000.78,0000.67,0000.60,18.2,24.5,05.4,03.6,0677.2,31.0
2021-06-23T05:43:00Z,00040200,00000000,0000.56,0001.22,0000.51,0000.14,0000.04,-000.05,0000.80,0000.79,0000.65,18.2,24.5,05.3,03.6,0677.2,31.0
2021-06-23T05:44:00Z,00040200,00000000,0002.01,0000.80,0000.86,-000.04,0000.29,0000.23,0000.27,0000.57,0000.54,18.2,24.5,05.4,03.7,0677.3,31.1
2021-06-23T05:45:00Z,00040200,00000000,0001.05,0000.88,0000.62,0000.15,0000.27,0000.29,0000.30,0000.14,0000.07,18.3,24.5,05.3,03.6,0677.3,31.1
2021-06-23T05:46:00Z,00040200,00000000,0001.32,0001.00,0000.62,0000.05,0000.20,0000.05,0000.02,-000.69,0000.16,18.3,24.6,05.2,03.5,0677.3,31.1
2021-06-23T05:47:00Z,00040200,00000000,0000.72,0000.91,0000.66,-000.14,0000.22,0000.13,0000.38,0000.78,0000.04,18.4,24.6,05.1,03.5,0677.3,31.1
2021-06-23T05:48:00Z,00040200,00000000,0001.00,0001.24,0000.27,0000.14,0000.35,0000.09,0000.22,0000.51,0000.59,18.3,24.6,05.1,03.4,0677.3,31.1
2021-06-23T05:49:00Z,00040200,00000000,0000.79,0001.18,0000.71,0000.25,0000.45,0000.30,0000.39,-000.07,-000.02,18.3,24.6,05.0,03.4,0677.3,31.1
2021-06-23T05:50:00Z,00040200,00000000,0000.67,0000.87,0000.16,0000.38,0000.31,0000.04,0000.27,0000.58,-000.11,18.3,24.6,04.8,03.3,0677.3,31.1
2021-06-23T05:51:00Z,00040200,00000000,0001.31,0000.92,0000.58,0000.06,0000.11,0000.19,0000.47,0000.14,0000.71,18.3,24.6,04.8,03.3,0677.3,31.0
2021-06-23T05:52:00Z,00040200,00000000,0000.84,0001.01,0000.70,0000.12,-000.01,0000.27,0000.19,0000.59,0000.28,18.2,24.5,04.8,03.3,0677.3,31.0
2021-06-23T05:53:00Z,00040200,00000000,0000.89,0000.85,0000.73,0000.24,0000.15,0000.40,0000.39,0000.15,0000.32,18.2,24.5,04.8,03.3,0677.3,31.0
2021-06-23T05:54:00Z,00040200,00000000,0001.65,0000.97,0000.76,-000.41,0000.25,0000.11,0000.14,0000.38,0000.10,18.2,24.5,04.7,03.2,0677.3,31.0
2021-06-23T05:55:00Z,00040200,00000000,0001.43,0000.71,0000.44,0000.14,-000.00,0000.09,0000.23,-000.05,0000.17,18.1,24.5,04.6,03.1,0677.3,31.0
2021-06-23T05:56:00Z,00040200,00000000,-000.03,0001.01,0000.57,0000.08,0000.22,0000.13,0000.19,0000.18,0000.32,18.1,24.4,04.6,03.1,0677.3,31.0
2021-06-23T05:57:00Z,00040200,40000000,,,,,,,0000.46,0000.23,-000.29,18.1,24.5,04.4,03.0,0677.3,31.0
2021-06-23T05:58:00Z,00040200,60000000,,,,,,,-000.44,-000.13,0000.57,17.9,24.6,04.6,03.0,0676.3,31.0
2021-06-23T05:59:00Z,00040200,20000000,,,,,,,-000.32,-000.03,-000.34,17.9,24.7,04.6,03.0,0676.3,31.0
